Theta_e
326 328 331 332 333 333 333 338 340 340 341 341 344 345 345 346 347 346 346 345 345 345 346 348 351 351 350 345 342 342 338 336 334
320 324 329 330 332 333 333 335 339 339 341 342 343 345 346 347 348 347 346 346 346 346 348 349 349 351 349 344 342 340 338 336 334
320 322 325 329 331 332 333 335 338 340 341 341 343 346 347 347 347 348 348 347 345 346 347 349 348 349 349 343 341 340 338 336 336
319 321 323 326 329 332 333 334 336 339 340 341 342 346 347 347 347 348 348 347 347 346 347 348 347 348 347 344 340 339 338 336 336
318 322 324 325 328 331 332 332 334 337 339 341 342 345 347 347 348 348 347 347 348 348 346 346 347 347 346 345 341 340 338 336 336
318 321 322 324 326 328 330 332 334 335 338 340 342 344 345 346 347 347 347 348 349 348 346 345 345 346 345 344 342 338 340 339 338
312 316 321 323 324 327 329 331 333 335 338 341 342 343 344 344 346 347 347 349 350 350 348 345 344 344 345 345 343 341 339 339 338
315 317 319 321 323 325 327 330 333 335 338 341 343 343 343 344 346 347 347 347 348 350 350 348 345 344 344 345 343 342 340 339 338
312 316 319 321 324 326 325 328 332 335 337 341 343 343 342 345 346 347 347 348 347 347 349 350 348 344 344 343 343 335 333 339 339
307 312 318 319 321 324 326 327 332 334 337 342 343 343 343 344 346 346 347 348 348 347 346 348 349 347 345 344 345 329 330 334 341
307 308 315 319 321 324 327 329 330 334 337 340 343 343 344 345 346 346 348 348 348 348 348 347 347 347 347 346 345 327 326 333 342
308 310 313 318 322 324 325 327 330 334 336 339 343 344 344 346 348 347 347 348 349 350 350 349 348 349 347 346 346 325 324 329 342
312 313 316 317 319 322 322 325 329 333 334 337 340 345 346 348 349 348 348 348 349 351 352 351 350 349 349 341 347 324 321 328 341
314 313 313 316 321 325 326 328 332 332 334 336 340 344 348 349 350 350 350 350 351 351 351 352 351 350 350 347 345 340 318 320 341
317 323 325 320 315 317 324 330 334 334 334 339 342 344 347 348 350 351 352 351 351 351 351 351 351 350 348 348 348 329 317 318 328
335 337 339 337 337 340 343 335 331 330 333 337 339 341 342 348 350 352 353 352 352 351 352 351 350 349 346 346 347 338 315 316 320
335 336 337 339 341 341 342 344 343 342 346 341 335 336 338 341 344 347 352 353 352 352 351 351 350 348 346 345 337 332 329 330 330
334 335 337 339 339 338 341 343 344 345 346 341 335 336 337 340 340 327 324 322 320 329 320 331 350 349 346 335 330 328 324 326 328
331 330 333 333 333 333 334 337 339 340 340 343 337 332 330 329 328 329 330 330 325 309 311 310 309 310 320 329 319 312 312 310 310
325 330 333 333 331 333 334 333 331 332 337 337 333 330 330 330 329 328 326 325 324 322 321 308 309 311 314 311 311 308 303 301 301
Wind_Speed
21 20 21 23 23 20 20 22 21 19 19 19 19 18 18 17 16 10 10 10 8 7 7 7 8 9 8 8 8 6 6 4 4
19 21 23 25 24 22 21 20 22 22 21 20 19 20 17 17 15 14 12 11 10 8 8 7 8 10 10 9 9 8 8 5 6
19 19 22 23 22 23 20 21 21 21 21 22 22 21 18 17 17 16 14 12 12 11 9 9 9 10 10 10 9 9 9 6 4
18 18 20 22 22 22 21 18 18 21 20 20 20 18 18 17 16 15 14 13 13 12 11 11 11 11 11 11 11 11 9 8 8
12 13 18 21 22 20 19 20 19 21 20 20 20 19 19 19 17 16 16 15 15 12 13 11 12 12 12 12 12 12 13 12 10
9 12 9 13 15 17 18 19 19 19 20 22 20 18 19 18 18 16 17 17 16 14 13 13 12 13 14 14 14 13 14 13 12
10 9 8 9 12 17 17 19 20 19 20 19 18 19 18 20 20 20 19 18 16 15 15 14 15 15 15 15 14 14 14 13 13
7 10 8 10 14 16 16 16 18 18 17 17 18 18 18 20 18 18 17 16 16 15 16 16 15 15 14 14 14 12 15 14 13
10 10 10 10 10 13 12 17 17 18 19 20 20 20 22 18 17 18 18 16 17 16 16 16 15 16 16 15 12 17 18 16 14
12 11 11 10 13 13 14 15 18 19 20 18 20 21 20 19 19 19 19 17 18 18 18 16 18 16 16 17 17 18 20 22 13
15 13 11 11 11 13 14 16 15 16 14 17 19 20 18 17 19 20 17 17 18 19 17 18 16 17 18 17 15 18 22 26 17
15 12 13 13 14 15 13 10 10 10 12 15 17 18 18 18 19 19 18 19 21 18 16 16 18 14 16 18 16 21 23 20 16
12 10 9 10 9 5 8 11 12 14 16 17 18 19 20 19 19 19 20 21 20 17 15 15 11 15 16 18 17 19 22 23 12
8 8 9 6 9 9 7 6 12 15 14 17 21 18 16 17 19 20 22 20 15 15 15 13 15 16 14 16 19 17 25 26 13
5 6 6 1 5 6 3 3 6 7 12 15 5 8 12 14 16 14 12 16 13 14 16 16 16 15 13 12 15 14 19 26 19
5 6 5 6 9 10 10 6 5 3 3 4 5 6 6 5 5 6 6 8 8 8 9 11 12 12 12 11 8 6 12 25 23
6 7 10 9 13 13 9 8 8 4 1 4 6 7 7 6 6 5 4 2 3 7 8 8 8 9 10 5 4 7 9 9 12
10 9 11 12 12 12 9 6 8 6 5 4 6 6 5 6 8 12 12 12 5 5 10 3 8 10 7 9 8 9 19 22 15
10 11 11 13 12 12 10 8 7 7 7 10 10 10 8 7 8 8 9 11 11 12 16 20 16 20 14 10 10 26 27 21 28
14 14 13 12 13 11 9 9 9 7 7 8 11 11 11 9 10 9 10 10 7 8 8 17 19 14 18 9 14 21 19 17 18
Wind_Direction
213 210 210 211 210 206 199 198 196 193 195 200 194 194 201 203 201 198 202 197 193 196 195 200 193 193 186 187 187 181 172 176 180
213 210 209 213 213 208 205 200 197 195 195 200 197 198 198 200 198 199 198 195 197 195 191 196 187 190 188 186 188 179 176 187 188
221 209 211 214 214 211 205 203 199 196 198 198 197 197 195 197 198 198 196 190 198 196 193 190 180 188 189 182 185 183 180 186 177
212 208 209 211 212 209 204 201 194 199 198 195 198 195 196 198 197 198 195 198 201 196 191 192 184 187 190 188 187 187 186 195 186
217 205 209 209 211 204 198 197 193 195 197 197 198 194 195 198 197 192 191 199 204 192 194 192 188 188 192 194 193 189 192 198 196
221 218 202 205 204 199 195 193 194 194 194 203 198 193 195 197 196 191 197 201 201 194 194 192 188 189 193 197 197 191 196 199 196
230 232 220 202 196 198 196 191 193 192 199 201 195 196 195 197 196 194 196 199 198 196 197 190 191 196 197 198 196 197 198 196 197
242 242 224 204 200 198 197 191 192 193 194 190 191 195 197 204 200 199 197 197 198 198 197 199 194 194 201 198 199 200 198 197 199
220 229 232 205 207 203 193 193 191 191 189 190 186 193 202 197 194 195 199 197 196 197 200 199 193 200 201 200 206 203 192 192 200
228 233 229 215 199 201 201 196 192 192 195 186 191 197 199 194 192 196 200 195 196 199 201 194 203 201 199 208 210 193 187 194 201
231 230 220 226 219 211 206 202 197 200 185 188 195 202 201 195 193 198 196 198 204 204 200 201 199 200 202 204 209 190 191 196 204
220 223 226 216 221 214 205 180 182 169 177 187 194 200 199 198 196 196 194 200 205 204 201 204 206 200 199 203 206 189 193 185 203
219 219 234 216 200 208 184 197 166 172 186 187 195 200 202 197 196 196 199 205 206 203 200 208 204 207 202 204 206 193 188 185 197
212 200 220 233 169 184 214 178 164 183 184 194 205 202 200 198 198 199 202 202 201 203 204 196 199 205 201 199 205 200 186 184 186
178 144 83 80 100 72 59 107 157 170 192 211 201 198 206 210 205 203 204 203 203 198 196 206 199 196 200 200 206 202 190 183 182
79 98 76 73 84 69 56 62 73 160 31 110 131 167 205 209 215 228 230 217 207 203 200 199 206 200 207 210 223 174 180 185 176
91 79 85 82 84 75 63 52 61 66 174 146 158 180 174 162 156 125 103 109 172 199 205 216 219 224 213 189 159 132 112 114 356
92 86 86 87 88 87 73 54 48 38 33 90 88 85 90 86 83 94 90 71 54 64 42 17 209 205 193 147 147 169 140 130 125
81 77 83 83 81 80 73 60 59 33 24 78 90 85 81 93 102 115 122 110 91 74 93 69 51 52 50 32 317 161 145 164 151
73 69 67 67 73 73 72 65 51 42 59 97 104 106 108 107 105 113 118 112 116 102 56 68 86 107 117 73 132 324 325 147 121